Theta_e
293 292 291 291 293 296 294 293 293 294 296 302 302 300 298 296 295 294 293 293 293 293 292 292 291 290 290 289 289 289 291 292 293 294 296 298 299 301 303 304 310 319 323 331
291 291 291 293 294 293 292 293 293 294 295 301 301 299 297 294 294 293 293 292 292 292 291 291 291 290 290 289 289 289 289 289 290 292 294 295 298 299 300 300 302 305 312 316
290 291 292 292 291 293 293 291 292 293 295 300 300 300 297 294 293 292 291 292 292 291 291 291 290 290 290 289 289 288 288 288 289 290 292 293 294 296 297 298 299 301 303 309
291 290 291 291 292 292 294 292 293 294 295 297 301 301 298 294 293 292 290 289 289 290 290 291 290 290 289 289 289 288 288 288 288 288 289 292 293 293 295 296 297 298 299 303
292 290 288 289 290 291 293 292 293 294 296 295 297 293 299 295 293 292 289 289 288 288 289 290 290 289 289 289 289 288 288 288 288 288 288 289 291 292 292 294 295 296 297 299
290 290 289 288 289 290 291 295 293 298 296 291 293 292 294 296 293 291 289 288 288 288 288 289 290 289 289 289 288 288 288 288 287 287 287 287 289 291 291 291 293 294 296 297
290 288 289 288 290 290 292 290 281 286 285 291 293 289 292 292 291 288 288 288 287 287 287 288 288 289 288 289 288 288 288 288 287 288 287 287 287 289 290 290 290 292 294 295
287 290 288 288 289 290 291 289 284 282 288 290 290 287 290 292 289 287 288 288 287 287 287 287 288 289 288 288 288 287 287 288 287 287 287 287 287 287 288 288 289 290 291 293
285 288 288 289 289 288 289 287 291 281 273 282 290 294 294 292 289 288 288 287 286 286 287 287 288 288 288 288 288 287 286 287 287 287 287 287 286 286 287 287 287 287 288 290
287 285 289 289 290 289 289 289 285 278 278 278 286 289 291 293 292 288 288 286 285 285 286 286 287 288 288 288 288 286 286 286 287 287 287 286 286 286 286 286 287 286 286 287
287 282 287 289 287 287 288 289 287 281 283 279 282 287 284 291 291 287 287 286 285 285 285 286 287 288 288 288 288 286 286 286 286 286 286 286 285 285 286 286 286 286 285 286
288 280 281 288 286 286 289 287 285 280 281 284 285 285 287 288 288 288 287 287 287 286 285 286 287 287 288 288 287 287 286 286 286 286 285 285 285 285 285 285 285 285 284 285
286 280 277 282 284 287 287 288 287 281 278 279 280 284 286 286 286 287 287 287 287 287 286 286 287 287 287 288 287 287 286 286 286 285 285 285 285 285 284 284 285 284 284 284
287 282 281 283 283 284 287 286 284 280 275 283 284 286 287 287 287 287 287 287 286 286 285 285 285 286 287 288 287 287 286 286 285 285 285 284 284 284 283 283 283 283 283 283
284 280 283 283 285 286 287 288 288 285 285 282 287 286 286 286 286 286 287 286 286 286 285 285 284 286 287 287 287 287 286 286 285 285 284 284 283 283 282 283 282 283 282 283
285 278 279 279 282 285 287 287 287 287 287 286 286 286 286 286 286 284 285 285 286 286 285 285 286 286 286 286 286 287 286 286 285 284 284 283 282 282 281 281 281 281 281 281
282 278 275 277 279 277 280 281 285 286 285 285 284 286 285 284 285 285 285 285 285 285 285 285 286 286 286 286 286 286 286 286 285 284 283 281 281 280 279 279 280 280 279 280
277 278 276 276 273 279 285 283 284 286 286 285 285 285 285 285 285 284 284 284 285 284 285 285 286 286 286 287 286 286 286 286 284 283 281 280 279 278 278 279 278 278 278 280
284 284 278 278 270 280 284 285 284 284 284 285 285 285 285 284 283 282 283 283 283 283 285 285 286 286 286 286 286 286 286 285 283 281 280 278 277 277 277 277 277 277 278 279
282 284 286 271 278 277 283 285 285 284 285 284 285 285 284 284 283 284 284 284 285 286 286 286 286 286 286 286 286 285 284 283 281 279 278 277 277 276 275 276 276 276 277 279
281 285 287 286 284 280 283 283 284 283 287 285 284 284 284 283 284 285 284 284 285 286 286 286 286 286 286 285 284 284 282 280 278 277 276 276 276 275 275 275 275 275 276 277
280 278 278 277 278 283 283 283 285 287 286 286 285 284 284 284 284 284 284 284 284 285 286 286 285 285 284 283 282 280 279 277 276 275 274 274 275 275 274 274 275 275 275 277
282 282 281 282 282 284 283 285 285 286 286 286 284 285 283 283 284 285 284 284 284 285 285 284 283 283 282 280 278 276 275 274 273 272 273 273 273 273 273 272 273 274 275 277
283 283 283 284 286 285 284 284 284 285 285 285 285 286 286 285 286 285 285 284 284 284 283 282 280 278 277 276 274 273 272 271 271 271 271 271 271 271 272 272 272 273 274 275
286 284 286 287 287 288 287 287 287 287 287 286 286 286 285 285 285 285 285 284 284 282 280 278 276 275 274 273 272 271 270 269 269 268 268 269 269 269 269 270 271 272 274 274
288 289 288 289 289 288 289 289 288 286 287 286 285 285 286 285 285 285 284 283 281 278 276 274 273 272 272 271 270 270 268 268 267 266 266 266 266 267 268 269 270 271 273 274
Wind_Speed
10 14 8 7 4 5 6 5 3 3 4 8 11 10 7 7 10 10 8 8 10 12 17 21 25 29 32 35 37 38 38 39 42 42 41 41 40 34 31 30 27 23 23 28
7 14 7 4 7 9 8 3 5 3 5 10 9 9 6 6 7 8 8 8 8 9 13 21 24 27 30 32 34 35 35 36 37 36 34 32 31 30 25 34 34 30 28 28
11 4 5 6 10 8 3 6 4 2 6 7 10 4 4 4 5 7 7 5 5 7 8 15 20 24 28 32 34 33 34 33 34 34 34 37 34 33 37 42 42 43 36 32
8 6 6 7 6 3 1 4 2 2 3 4 2 2 4 4 3 5 5 6 6 6 8 12 16 21 25 28 33 34 37 35 37 37 35 32 30 31 33 32 36 38 40 34
1 5 7 6 3 5 4 9 2 2 3 3 5 4 2 4 2 3 5 6 6 7 8 11 16 19 24 28 30 34 37 38 38 38 38 32 29 29 32 33 34 36 39 37
4 3 4 3 4 3 9 3 6 4 3 3 5 4 3 4 4 3 2 4 4 5 6 12 14 15 20 25 30 32 33 35 38 38 38 36 32 32 34 37 36 36 35 36
6 4 5 4 5 7 10 6 4 5 4 4 2 4 6 5 4 5 2 2 5 5 5 10 14 14 15 20 25 29 32 33 36 36 37 35 34 31 29 32 32 36 37 35
4 5 8 9 3 3 5 4 4 4 2 5 7 4 3 6 6 4 1 2 5 6 6 10 12 13 14 17 22 28 30 30 34 33 35 34 35 31 30 30 32 31 33 35
3 1 4 3 3 2 5 6 4 6 1 3 3 5 1 3 3 1 3 5 7 7 8 12 16 13 14 16 21 29 29 29 31 32 35 34 35 34 33 36 33 31 33 35
2 3 2 4 3 5 6 1 3 4 2 4 4 5 4 6 6 3 2 5 7 7 8 15 15 11 17 14 19 26 28 28 30 31 34 33 35 34 34 35 35 37 37 36
3 3 3 1 5 1 4 2 5 4 3 4 2 6 6 6 6 5 3 5 8 8 8 14 11 13 16 13 19 23 27 27 29 29 33 33 37 36 35 33 36 38 39 38
1 4 1 2 6 4 1 3 4 4 5 2 2 6 3 1 3 1 7 14 15 9 7 13 12 13 13 14 18 21 26 27 26 28 30 33 35 37 37 36 36 40 40 41
2 1 3 6 5 4 1 2 4 4 3 5 5 6 2 6 6 14 14 14 16 12 9 11 14 15 16 17 20 21 25 26 27 28 30 33 35 36 38 38 37 40 39 41
5 1 6 6 4 3 2 3 3 6 3 3 9 9 20 18 19 16 17 16 16 12 8 8 13 18 14 18 23 24 25 26 26 27 30 32 34 34 36 37 38 40 39 37
5 3 1 4 6 4 9 13 12 12 9 6 15 14 19 16 16 15 17 15 13 9 7 7 9 13 18 24 27 23 24 25 26 27 31 31 33 36 36 35 39 38 38 38
3 2 2 5 4 5 12 18 17 16 16 15 22 23 24 20 15 10 14 11 10 10 7 7 13 17 21 27 29 26 25 24 24 26 30 30 31 34 34 38 36 36 38 39
6 4 3 5 4 6 8 10 13 6 7 7 8 11 7 6 9 11 9 9 12 9 8 9 15 19 25 28 26 28 26 23 22 24 27 27 29 34 36 30 31 35 37 33
5 5 3 4 4 1 6 3 5 12 7 15 12 13 15 15 11 8 9 9 11 8 10 15 19 24 28 25 27 26 26 23 20 23 26 27 30 33 29 30 33 35 30 29
4 4 1 2 3 7 9 6 7 9 9 19 16 15 16 14 2 7 10 9 11 17 26 27 28 28 27 26 25 28 24 21 20 22 25 28 30 30 29 34 35 31 29 32
3 3 4 2 3 7 6 3 3 4 9 13 13 14 13 5 5 8 9 12 19 26 30 31 32 26 23 27 28 25 22 18 20 22 28 29 28 28 33 33 33 31 28 30
4 3 14 10 7 8 13 7 2 4 11 5 8 11 11 7 10 12 8 13 22 28 30 30 25 21 25 25 23 17 15 18 22 26 28 27 28 29 29 29 30 29 29 27
8 8 4 2 3 10 10 5 8 11 3 6 6 9 11 11 12 13 12 16 21 25 29 26 20 19 19 17 14 15 18 23 26 27 27 28 27 27 27 28 31 28 25 25
2 8 6 12 9 5 8 9 15 8 8 11 4 11 9 10 11 16 12 13 19 21 20 13 10 12 13 16 15 19 25 25 27 28 28 27 28 26 27 28 29 26 24 22
5 6 5 2 11 21 11 16 14 15 15 17 15 16 14 14 15 15 14 14 14 9 6 6 13 16 15 16 19 19 22 24 24 26 27 28 26 28 29 28 25 24 21 22
7 8 10 17 20 21 19 19 22 21 17 15 20 18 15 15 15 15 12 12 8 5 4 9 12 11 15 18 21 21 20 20 21 23 26 26 24 26 28 27 24 22 24 21
9 16 8 15 19 15 21 21 15 12 16 12 11 12 19 18 13 15 11 7 6 7 9 10 10 13 16 19 20 18 16 18 19 23 22 24 25 26 25 24 29 22 22 21
Wind_Direction
26 60 33 334 346 95 100 83 53 355 50 75 97 96 79 61 62 57 47 38 38 32 24 25 25 22 21 21 20 17 15 11 11 8 4 359 357 357 359 347 334 346 344 281
45 48 331 353 33 66 52 62 4 295 346 101 108 91 78 64 63 59 49 41 34 24 25 25 25 23 22 20 18 17 16 14 12 8 3 360 355 351 353 350 348 340 331 329
74 314 319 41 36 25 44 80 331 240 7 68 119 116 104 65 64 61 45 28 18 19 14 18 22 21 20 19 15 14 14 13 12 11 6 5 4 3 354 352 348 345 342 330
68 337 26 32 58 359 312 102 269 269 82 169 151 239 202 147 80 50 33 21 9 7 1 14 18 21 21 19 16 15 12 11 10 10 9 7 4 356 350 340 339 341 344 339
68 5 13 33 341 329 267 322 212 177 95 74 344 72 261 178 60 34 22 13 8 6 1 3 16 20 21 20 16 13 9 9 7 8 9 4 358 352 347 348 343 342 343 345
75 2 44 306 297 314 297 20 45 52 67 34 262 116 223 203 176 140 27 352 353 1 352 13 19 18 15 13 12 10 6 3 3 3 3 2 356 349 346 347 347 342 339 338
347 20 338 17 359 347 15 43 2 1 12 211 28 33 243 163 178 137 141 348 356 357 353 356 4 4 5 8 10 7 3 358 358 358 357 356 353 349 344 342 342 340 337 334
33 354 13 335 58 297 357 90 132 203 317 287 334 260 290 185 119 119 115 15 1 333 322 323 341 349 347 356 3 3 1 354 353 353 352 351 350 346 341 339 337 335 334 330
42 320 328 9 355 51 317 42 145 104 81 30 277 289 306 189 137 49 352 359 328 314 311 311 327 335 336 344 355 359 357 350 348 347 346 344 344 344 341 340 337 333 332 332
195 29 3 310 352 20 82 93 38 11 54 304 293 275 245 223 223 247 316 325 305 308 307 302 316 328 337 331 347 354 352 347 343 344 341 338 339 340 339 338 335 334 333 332
107 90 290 24 27 312 353 34 57 110 126 173 289 270 217 214 211 225 265 296 285 289 290 293 299 326 330 324 339 344 346 345 341 340 337 337 338 339 337 333 333 332 331 330
139 142 233 206 295 270 131 170 110 113 272 222 158 270 292 76 261 308 297 303 303 291 290 290 295 317 314 317 325 329 337 339 338 335 334 334 335 335 332 329 329 331 329 329
206 323 6 349 354 351 124 197 120 103 72 215 141 261 250 286 276 312 311 302 301 297 290 274 303 304 295 312 317 320 329 332 334 332 331 332 332 331 328 327 325 327 327 326
95 138 173 199 197 136 258 226 155 130 139 203 227 274 279 294 293 299 300 297 297 292 262 271 290 293 306 313 311 313 321 326 330 328 328 328 329 325 324 325 323 325 326 323
117 192 202 261 250 215 246 255 240 212 224 205 272 261 271 274 281 286 287 290 294 276 270 287 284 301 313 312 312 306 312 317 325 325 326 326 326 324 324 321 322 326 326 323
159 259 86 302 329 267 260 258 247 242 246 247 252 268 266 270 277 272 277 288 282 262 271 267 283 300 307 308 305 307 309 310 318 321 323 325 322 323 321 320 322 324 323 322
153 130 78 270 345 340 299 244 223 179 200 189 209 242 273 262 267 275 275 286 282 260 244 258 268 290 301 306 308 304 309 308 313 321 323 321 322 320 320 319 315 318 319 319
137 112 122 254 14 334 249 252 190 207 221 226 253 263 262 263 253 263 262 249 267 247 258 265 281 298 306 306 303 306 306 303 313 319 321 322 321 321 318 313 313 317 318 314
152 136 284 190 200 305 283 270 174 185 244 245 251 258 261 262 297 271 252 241 241 243 263 275 293 302 301 305 307 308 302 299 313 320 319 322 323 320 313 313 316 317 315 312
94 120 167 85 202 232 243 223 142 110 280 230 236 250 255 255 251 255 258 251 259 266 275 279 298 301 304 308 309 308 299 307 319 321 320 321 321 316 315 316 317 313 311 307
134 191 220 223 248 278 250 235 108 105 260 194 202 229 240 218 234 254 271 266 272 281 283 289 294 296 306 313 313 304 310 319 318 318 319 319 319 318 318 320 319 315 312 311
165 160 194 133 204 278 208 110 186 222 261 249 242 234 232 239 251 263 264 261 270 275 287 291 294 303 313 318 317 315 317 318 317 317 316 318 319 321 321 319 319 321 314 312
264 192 183 196 205 231 192 210 219 247 251 266 224 262 243 254 267 279 273 256 257 269 282 285 299 315 318 321 322 321 318 319 317 317 316 319 320 322 322 316 316 314 315 310
246 173 231 171 224 253 222 249 253 253 251 262 258 263 275 266 269 268 274 266 258 259 232 272 306 312 316 315 320 323 320 317 317 316 318 322 321 319 321 319 313 308 305 310
204 153 228 251 260 273 269 257 259 268 262 256 260 258 254 254 258 258 260 260 243 224 246 298 305 306 310 317 319 323 320 320 318 317 319 319 316 315 315 313 307 300 297 298
207 231 224 254 259 246 266 273 272 249 260 258 246 259 253 237 254 256 250 234 240 276 291 297 298 305 314 317 318 321 319 318 317 317 317 314 315 314 312 310 310 308 299 303